Location: Oroua River
(40.4333°S, 175.4333°E)
Time: 14:16:19
(UTC+00:00)

Cosmos 2082 Rocket - Pass Details

Date: 03 February 2023
Orbit: 833 x 853 km, 71.0° (Epoch: 22 March)

Event Time Altitude Azimuth Distance (km) Brightness Sun altitude
Rises 13:29:15 0° 219° (SW) 3,425 5.8 -31.5°
Reaches altitude 10° 13:32:17 10° 234° (SW) 2,485 4.8 -31.4°
Enters shadow 13:33:39 15° 246° (WSW) 2,154 4.3 -31.3°
